When you browse on this site, cookies collect data to enhance your experience and personalize the content and advertising you see.
Visit our Privacy Policy to learn more. By continuing to use the site, you agree to this use of cookies and data.
  • In Switzerland
  • List of Countries
  • For 7 days
  • Water Temperature
  • Satellite Maps
  • Weather Map
  • Weather Widgets
  • user-avatar
    Login

    Hourly Weather Plateaux

    Today, 17 February, Sunday

    Time Temperature Precipitation Wind Pressure Humidity
    00:00 +27°C° 2 mm 1 mps 722 mmHg 85%
    01:00 +26°C° 2 mm 1 mps 722 mmHg 88%
    02:00 +26°C° 0.3 mm 2 mps 721 mmHg 88%
    03:00 +26°C° 0.3 mm 2 mps 721 mmHg 88%
    04:00 +25°C° 0.3 mm 3 mps 721 mmHg 89%
    05:00 +25°C° 0 mm 3 mps 721 mmHg 88%
    06:00 +25°C° 0 mm 3 mps 721 mmHg 88%
    07:00 +25°C° 0 mm 3 mps 722 mmHg 87%
    08:00 +26°C° 0 mm 3 mps 722 mmHg 83%
    09:00 +27°C° 0 mm 3 mps 722 mmHg 79%
    10:00 +28°C° 0 mm 2 mps 722 mmHg 75%
    11:00 +30°C° 0 mm 2 mps 722 mmHg 65%
    12:00 +34°C° 0 mm 2 mps 721 mmHg 55%
    13:00 +35°C° 0 mm 1 mps 721 mmHg 45%
    14:00 +35°C° 0 mm 1 mps 720 mmHg 46%
    15:00 +34°C° 0 mm 1 mps 720 mmHg 46%
    16:00 +34°C° 0 mm 1 mps 719 mmHg 47%
    17:00 +32°C° 0 mm 1 mps 719 mmHg 51%
    18:00 +31°C° 0 mm 2 mps 719 mmHg 54%
    19:00 +30°C° 0 mm 2 mps 720 mmHg 58%
    20:00 +29°C° 0.1 mm 2 mps 720 mmHg 63%
    21:00 +28°C° 0.1 mm 2 mps 721 mmHg 69%
    22:00 +27°C° 0.1 mm 2 mps 721 mmHg 74%
    23:00 +27°C° 0.1 mm 2 mps 721 mmHg 77%

    Tomorrow, 18 February, Monday

    Time Temperature Precipitation Wind Pressure Humidity
    00:00 +27°C° 0.1 mm 2 mps 721 mmHg 79%
    01:00 +26°C° 0.1 mm 3 mps 721 mmHg 82%
    02:00 +26°C° 0 mm 3 mps 720 mmHg 81%
    03:00 +26°C° 0 mm 3 mps 720 mmHg 80%
    04:00 +26°C° 0 mm 3 mps 720 mmHg 79%
    05:00 +26°C° 0.1 mm 3 mps 720 mmHg 78%
    06:00 +26°C° 0.1 mm 3 mps 720 mmHg 78%
    07:00 +26°C° 0.1 mm 4 mps 721 mmHg 77%
    08:00 +28°C° 0 mm 4 mps 721 mmHg 70%
    09:00 +30°C° 0 mm 3 mps 721 mmHg 63%
    10:00 +33°C° 0 mm 3 mps 722 mmHg 55%
    11:00 +34°C° 0 mm 3 mps 721 mmHg 51%
    12:00 +35°C° 0 mm 3 mps 720 mmHg 46%
    13:00 +36°C° 0 mm 2 mps 720 mmHg 41%
    14:00 +36°C° 0 mm 2 mps 719 mmHg 44%
    15:00 +34°C° 0 mm 1 mps 718 mmHg 46%
    16:00 +33°C° 0 mm 1 mps 718 mmHg 49%
    17:00 +32°C° 0 mm 1 mps 718 mmHg 52%
    18:00 +31°C° 0 mm 1 mps 718 mmHg 56%
    19:00 +30°C° 0 mm 2 mps 719 mmHg 59%
    20:00 +29°C° 0.1 mm 2 mps 719 mmHg 64%
    21:00 +29°C° 0.1 mm 2 mps 720 mmHg 68%
    22:00 +28°C° 0.1 mm 2 mps 721 mmHg 73%
    23:00 +28°C° 0.3 mm 2 mps 720 mmHg 74%

    Day after tomorrow, 19 February, Tuesday

    Time Temperature Precipitation Wind Pressure Humidity
    00:00 +27°C° 0.3 mm 2 mps 720 mmHg 76%
    01:00 +27°C° 0.3 mm 3 mps 720 mmHg 77%
    02:00 +27°C° 0.1 mm 3 mps 720 mmHg 77%
    03:00 +26°C° 0.1 mm 3 mps 719 mmHg 77%
    04:00 +26°C° 0.1 mm 3 mps 719 mmHg 78%
    05:00 +26°C° 0 mm 3 mps 719 mmHg 79%
    06:00 +26°C° 0 mm 2 mps 720 mmHg 80%
    07:00 +26°C° 0 mm 2 mps 720 mmHg 81%
    08:00 +27°C° 0 mm 2 mps 721 mmHg 79%
    09:00 +28°C° 0 mm 2 mps 721 mmHg 76%
    10:00 +28°C° 0 mm 2 mps 721 mmHg 74%
    11:00 +30°C° 0 mm 2 mps 721 mmHg 65%
    12:00 +32°C° 0 mm 2 mps 720 mmHg 56%
    13:00 +35°C° 0 mm 3 mps 720 mmHg 48%
    14:00 +35°C° 0 mm 2 mps 719 mmHg 47%
    15:00 +36°C° 0 mm 2 mps 718 mmHg 46%
    16:00 +36°C° 0 mm 2 mps 717 mmHg 45%
    17:00 +34°C° 0.9 mm 2 mps 718 mmHg 54%
    18:00 +31°C° 0.9 mm 2 mps 718 mmHg 63%
    19:00 +29°C° 0.9 mm 2 mps 718 mmHg 71%
    20:00 +28°C° 3.4 mm 2 mps 719 mmHg 75%
    21:00 +28°C° 3.4 mm 2 mps 720 mmHg 78%
    22:00 +27°C° 3.4 mm 1 mps 720 mmHg 81%
    23:00 +27°C° 1.6 mm 2 mps 720 mmHg 82%

    20 February, Wednesday

    Time Temperature Precipitation Wind Pressure Humidity
    00:00 +26°C° 1.6 mm 2 mps 720 mmHg 82%
    01:00 +26°C° 1.6 mm 2 mps 719 mmHg 83%
    02:00 +26°C° 0.1 mm 2 mps 719 mmHg 80%
    03:00 +26°C° 0.1 mm 1 mps 719 mmHg 77%
    04:00 +26°C° 0.1 mm 1 mps 719 mmHg 74%
    05:00 +26°C° 0 mm 1 mps 719 mmHg 74%
    06:00 +26°C° 0 mm 1 mps 719 mmHg 74%
    07:00 +26°C° 0 mm 2 mps 720 mmHg 74%
    08:00 +28°C° 0 mm 2 mps 720 mmHg 65%
    09:00 +31°C° 0 mm 2 mps 720 mmHg 57%
    10:00 +34°C° 0 mm 2 mps 721 mmHg 49%
    11:00 +36°C° 0 mm 2 mps 720 mmHg 45%
    12:00 +37°C° 0 mm 2 mps 719 mmHg 41%
    13:00 +37°C° 0 mm 1 mps 718 mmHg 37%
    14:00 +36°C° 0 mm 1 mps 718 mmHg 39%
    15:00 +36°C° 0 mm 1 mps 717 mmHg 42%
    16:00 +35°C° 0 mm 1 mps 717 mmHg 44%
    17:00 +34°C° 0 mm 1 mps 717 mmHg 47%
    18:00 +32°C° 0 mm 1 mps 718 mmHg 50%
    19:00 +31°C° 0 mm 1 mps 719 mmHg 53%
    20:00 +30°C° 0.5 mm 1 mps 719 mmHg 60%
    21:00 +29°C° 0.5 mm 1 mps 720 mmHg 66%
    22:00 +28°C° 0.5 mm 2 mps 720 mmHg 72%
    23:00 +27°C° 0.6 mm 1 mps 720 mmHg 74%

    21 February, Thursday

    Time Temperature Precipitation Wind Pressure Humidity
    00:00 +27°C° 0.6 mm 1 mps 720 mmHg 77%
    01:00 +27°C° 0.6 mm 1 mps 720 mmHg 79%
    02:00 +27°C° 0 mm 2 mps 720 mmHg 79%
    03:00 +27°C° 0 mm 2 mps 720 mmHg 80%
    04:00 +26°C° 0 mm 3 mps 719 mmHg 81%
    05:00 +26°C° 0 mm 3 mps 720 mmHg 82%
    06:00 +26°C° 0 mm 3 mps 720 mmHg 83%
    07:00 +26°C° 0 mm 3 mps 721 mmHg 84%
    08:00 +27°C° 0 mm 3 mps 721 mmHg 77%
    09:00 +29°C° 0 mm 4 mps 722 mmHg 69%
    10:00 +32°C° 0 mm 4 mps 722 mmHg 61%
    11:00 +33°C° 0.3 mm 4 mps 721 mmHg 57%
    12:00 +35°C° 0.3 mm 3 mps 720 mmHg 53%
    13:00 +36°C° 0.3 mm 3 mps 720 mmHg 49%
    14:00 +35°C° 1.3 mm 3 mps 719 mmHg 54%
    15:00 +34°C° 1.3 mm 3 mps 719 mmHg 59%
    16:00 +31°C° 1.3 mm 3 mps 718 mmHg 63%
    17:00 +30°C° 0.8 mm 3 mps 719 mmHg 69%
    18:00 +29°C° 0.8 mm 3 mps 719 mmHg 74%
    19:00 +27°C° 0.8 mm 3 mps 720 mmHg 80%
    20:00 +27°C° 0.1 mm 3 mps 720 mmHg 81%
    21:00 +27°C° 0.1 mm 3 mps 720 mmHg 82%
    22:00 +26°C° 0.1 mm 3 mps 721 mmHg 82%
    23:00 +26°C° 0 mm 4 mps 721 mmHg 83%

    22 February, Friday

    Time Temperature Precipitation Wind Pressure Humidity
    00:00 +26°C° 0 mm 4 mps 721 mmHg 83%
    01:00 +26°C° 0 mm 4 mps 721 mmHg 84%
    02:00 +26°C° 0 mm 3 mps 721 mmHg 83%
    03:00 +25°C° 0 mm 3 mps 721 mmHg 83%
    04:00 +25°C° 0 mm 3 mps 721 mmHg 82%
    05:00 +25°C° 0.2 mm 2 mps 721 mmHg 84%
    06:00 +25°C° 0.2 mm 2 mps 722 mmHg 85%
    07:00 +25°C° 0.2 mm 2 mps 723 mmHg 86%
    08:00 +25°C° 1.6 mm 2 mps 723 mmHg 86%
    09:00 +25°C° 1.6 mm 3 mps 723 mmHg 86%
    10:00 +25°C° 1.6 mm 3 mps 723 mmHg 85%
    11:00 +27°C° 0.2 mm 3 mps 723 mmHg 76%
    12:00 +29°C° 0.2 mm 4 mps 722 mmHg 67%
    13:00 +32°C° 0.2 mm 4 mps 721 mmHg 57%
    14:00 +32°C° 0 mm 4 mps 720 mmHg 58%
    15:00 +31°C° 0 mm 3 mps 720 mmHg 58%
    16:00 +30°C° 0 mm 3 mps 719 mmHg 58%
    17:00 +29°C° 0 mm 2 mps 719 mmHg 63%
    18:00 +28°C° 0 mm 2 mps 720 mmHg 68%
    19:00 +27°C° 0 mm 1 mps 720 mmHg 73%
    20:00 +26°C° 0 mm 1 mps 720 mmHg 73%
    21:00 +26°C° 0 mm 1 mps 720 mmHg 73%
    22:00 +26°C° 0 mm 1 mps 721 mmHg 73%
    23:00 +26°C° 0 mm 1 mps 720 mmHg 74%
    Show more